[[{"header":{"parameterUnit":"m.s-1","parameterCategory":1,"la1":30.2991,"la2":30.254,"lo1":-89.0895,"lo2":-89.0444,"dy":0.0017,"dx":0.0017,"nx":28,"ny":28,"refTime":"2025-09-08T03:00:00:Z","depth":0,"parameterNumber":2,"parameterNumberName":"U-component_of_WINDS"},"data":[0,0,0,0,0,0,0,0,0,0,0,0,0,0,0,0,0,0,0,0,0,0,0,0,0,0,0,0,0,0,0,0,0,0,0,0,0,0,0,0,0,0,0,0,0,0,0,0,0,0,0,0,0,0,0,0,0,0,-2.9624,-2.9623,0,-2.9545,-2.9544,-2.9543,-2.9402,-2.9399,-2.9396,-2.9394,-2.9314,-2.9314,-2.9315,0,0,0,0,0,0,0,0,0,0,0,0,0,-2.9658,-2.9658,-2.9624,-2.9623,-2.9622,-2.9545,-2.9544,-2.9543,-2.9402,-2.9399,-2.9396,-2.9393,-2.9314,-2.9314,-2.9315,0,0,0,0,0,0,0,0,0,0,0,0,0,-2.9617,-2.9658,-2.9625,-2.9543,-2.9535,-2.9545,-2.9544,-2.9543,-2.9403,-2.9399,-2.9395,-2.9391,-2.9314,-2.9314,-2.9315,-2.9399,0,0,-2.9317,-2.9317,0,0,0,0,0,0,0,0,-2.962,-2.9616,-2.9556,-2.9548,-2.9539,-2.9479,-2.9526,-2.9495,-2.9404,-2.9453,-2.9394,-2.9389,-2.9372,-2.9368,-2.9362,-2.9396,-2.9392,-2.9317,-2.9317,-2.9317,-2.9318,0,0,0,0,0,0,0,-2.9623,-2.9619,-2.9593,-2.9555,-2.9545,-2.9511,-2.9501,-2.952,-2.9436,-2.9448,-2.9438,-2.943,-2.9367,-2.9362,-2.9359,-2.9391,-2.9317,-2.9317,-2.9318,-2.9318,-2.9493,-2.9497,0,0,0,0,0,0,-2.9637,-2.9622,-2.9595,-2.959,-2.957,-2.9514,-2.9502,-2.9503,-2.9436,-2.9422,-2.9434,-2.9424,-2.9363,-2.9358,-2.9356,-2.9451,-2.9317,-2.9318,-2.9318,-2.9488,-2.9494,-2.9498,0,0,0,0,0,0,-2.9638,-2.9636,-2.9599,-2.9603,-2.9596,-2.9518,-2.9519,-2.9503,-2.9497,-2.9425,-2.9409,-2.9443,-2.9359,-2.9355,-2.939,-2.9447,-2.9318,-2.9319,-2.9483,-2.949,-2.9496,-2.9643,0,0,0,0,0,0,-2.964,-2.9637,-2.9668,-2.9605,-2.9596,-2.9634,-2.9522,-2.9504,-2.9499,-2.9485,-2.943,-2.9417,-2.9356,-2.939,-2.9391,-2.9445,-2.9319,-2.9478,-2.9486,-2.9494,-2.9633,-2.9654,-2.9672,0,0,0,0,0,-2.9642,-2.9712,-2.967,-2.9667,-2.9632,-2.9637,-2.9632,-2.956,-2.9504,-2.9534,-2.9488,-2.9418,-2.9441,-2.9395,-2.9394,-2.945,-2.9474,-2.9484,-2.9493,-2.9624,-2.965,-2.9672,0,0,0,0,0,0,-2.9783,-2.9702,-2.9654,-2.9706,-2.968,-2.9613,-2.9649,-2.9589,-2.9578,-2.9566,-2.9478,-2.9467,-2.9514,-2.9485,-2.9436,-2.9529,-2.9447,-2.9457,-2.9546,-2.957,-2.9589,-2.9595,-2.932,0,0,0,0,0,-2.982,-2.983,-2.9759,-2.9812,-2.9801,-2.9728,-2.9727,-2.9675,-2.9643,-2.9632,-2.9588,-2.9561,-2.9562,-2.9564,-2.9561,-2.9629,-2.9616,-2.9667,-2.9686,-2.9703,-2.9713,-2.9749,-2.9771,-2.953,-2.953,-2.953,0,0,-2.9897,-2.9854,-2.9866,-2.9839,-2.9812,-2.9826,-2.9719,-2.9737,-2.9747,-2.9634,-2.9665,-2.9633,-2.9597,-2.965,-2.967,-2.9627,-2.9777,-2.9715,-2.9729,-2.9729,-2.9761,-2.9784,-2.9804,-2.9537,-2.9535,-2.9534,0,0,-3.0044,-3.0012,-3.0053,-3.0029,-2.999,-2.9941,-2.9952,-2.9895,-2.9869,-2.9899,-2.9815,-2.9826,-2.9829,-2.9808,-2.9798,-2.9941,-2.9877,-2.9942,-3.0044,-3.008,-3.0099,-3.0116,-3.0168,-3.0188,-2.9952,-2.9953,-2.9953,0,-3.0145,-3.016,-3.0083,-3.0107,-3.0099,-2.9998,-3.004,-3.0021,-2.9983,-2.9981,-2.9932,-2.9936,-2.9905,-2.9952,-2.9988,-2.9982,-2.9993,-2.9948,-3.0103,-3.0118,-3.0132,-3.0182,-3.0202,-2.9961,-2.996,-2.9959,-2.9958,0,-3.0287,-3.03,-3.0338,-3.0305,-3.0301,-3.0334,-3.0263,-3.0269,-3.0218,-3.0175,-3.0208,-3.0168,-3.0156,-3.0163,-3.0112,-3.0204,-3.0179,-3.0118,-3.0033,-3.0165,-3.021,-3.0228,-2.9973,-2.997,-2.9967,-2.9965,0,0,-3.0519,-3.0444,-3.0459,-3.0444,-3.0395,-3.0404,-3.0434,-3.0422,-3.043,-3.0408,-3.0432,-3.0439,-3.0383,-3.0372,-3.0319,-3.035,-3.0469,-3.0286,-3.0284,-3.0322,-3.057,-3.0617,-3.064,-3.0427,-3.043,-3.0433,-3.0574,0,-3.0656,-3.0702,-3.0634,-3.0696,-3.0708,-3.0614,-3.0641,-3.0615,-3.0577,-3.0582,-3.054,-3.0547,-3.0472,-3.0465,-3.0492,-3.0449,-3.0518,-3.0438,-3.045,-3.0451,-3.0462,-3.0663,-3.0711,-3.0846,-3.0591,-3.0593,-3.0595,0,-3.0821,-3.0808,-3.0872,-3.0821,-3.0824,-3.0849,-3.0834,-3.084,-3.081,-3.078,-3.0769,-3.0707,-3.0734,-3.0653,-3.0691,-3.0638,-3.0639,-3.062,-3.0623,-3.0622,-3.0532,-3.0668,-3.0887,-3.0908,-3.0622,-3.062,-3.0618,0,-3.0986,-3.0984,-3.1022,-3.1012,-3.0954,-3.0974,-3.0951,-3.0916,-3.0915,-3.0902,-3.0901,-3.0892,-3.0888,-3.0884,-3.0821,-3.0767,-3.0869,-3.0781,-3.0846,-3.0848,-3.0871,-3.087,-3.1095,-3.0871,-3.0871,-3.0871,-3.087,0,-3.1146,-3.1189,-3.1096,-3.112,-3.1166,-3.1089,-3.1137,-3.1104,-3.1075,-3.1092,-3.1011,-3.1029,-3.0945,-3.0955,-3.0906,-3.0947,-3.0945,-3.0923,-3.091,-3.0931,-3.0934,-3.093,-3.092,-3.0876,-3.0875,-3.0874,-3.0873,0,-3.1337,-3.1276,-3.1312,-3.1255,-3.1242,-3.1279,-3.123,-3.1251,-3.1208,-3.1231,-3.1232,-3.1166,-3.1173,-3.1111,-3.1106,-3.1074,-3.1138,-3.1108,-3.1148,-3.1139,-3.1208,-3.1203,-3.1438,-3.1466,-3.1225,-3.1227,-3.1229,0,-3.1443,-3.1474,-3.1421,-3.1426,-3.1408,-3.1417,-3.1416,-3.1342,-3.1344,-3.1314,-3.1339,-3.134,-3.1336,-3.1353,-3.1305,-3.1302,-3.1272,-3.1355,-3.1271,-3.1292,-3.1275,-3.1275,-3.1278,-3.1373,-3.1376,-3.1378,-3.138,0,-3.1639,-3.1608,-3.1608,-3.16,-3.16,-3.159,-3.1574,-3.1583,-3.1504,-3.151,-3.1517,-3.1515,-3.1511,-3.1514,-3.1502,-3.148,-3.1418,-3.1407,-3.1422,-3.1444,-3.1467,-3.1457,-3.1197,-3.1402,-3.14,-3.1398,-3.1397,-3.1396,-3.1791,-3.1815,-3.1782,-3.1786,-3.1767,-3.1755,-3.1772,-3.1733,-3.1737,-3.1728,-3.1685,-3.1701,-3.1672,-3.165,-3.1634,-3.1646,-3.1606,-3.1628,-3.1633,-3.164,-3.1653,-3.1465,-3.1644,-3.1643,-3.1642,-3.1642,-3.1641,0,-3.1984,-3.1959,-3.1963,-3.1944,-3.1949,-3.189,-3.187,-3.1878,-3.1892,-3.1871,-3.187,-3.188,-3.1883,-3.1837,-3.1834,-3.1853,-3.1825,-3.1855,-3.1853,-3.185,-3.1688,-3.1676,-3.1878,-3.1878,-3.1878,-3.1878,-3.1878,-3.1878,-3.2084,-3.2123,-3.2089,-3.2119,-3.2093,-3.2107,-3.2102,-3.2091,-3.2074,-3.2088,-3.209,-3.206,-3.203,-3.2025,-3.2026,-3.2013,-3.2016,-3.2057,-3.2034,-3.1884,-3.1861,-3.1839,-3.1827,-3.2058,-3.2058,-3.2194,-3.2196,-3.2197]},{"header":{"parameterUnit":"m.s-1","parameterCategory":1,"la1":30.2991,"la2":30.254,"lo1":-89.0895,"lo2":-89.0444,"dy":0.0017,"dx":0.0017,"nx":28,"ny":28,"refTime":"2025-09-08T03:00:00:Z","depth":0,"parameterNumber":3,"parameterNumberName":"V-component_of_WINDS"},"data":[0,0,0,0,0,0,0,0,0,0,0,0,0,0,0,0,0,0,0,0,0,0,0,0,0,0,0,0,0,0,0,0,0,0,0,0,0,0,0,0,0,0,0,0,0,0,0,0,0,0,0,0,0,0,0,0,0,0,1.2976,1.2976,0,1.2912,1.2912,1.2911,1.2894,1.2894,1.2895,1.2895,1.2823,1.2821,1.2819,0,0,0,0,0,0,0,0,0,0,0,0,0,1.3079,1.3077,1.2976,1.2976,1.2975,1.2912,1.2912,1.2911,1.2894,1.2894,1.2895,1.2895,1.2824,1.2821,1.2819,0,0,0,0,0,0,0,0,0,0,0,0,0,1.3027,1.3077,1.2977,1.2959,1.2957,1.2913,1.2911,1.291,1.2894,1.2894,1.2895,1.2895,1.2825,1.2822,1.2818,1.2785,0,0,1.2808,1.2806,0,0,0,0,0,0,0,0,1.303,1.3023,1.2962,1.296,1.2958,1.2912,1.2921,1.2868,1.2893,1.2917,1.2895,1.2896,1.2852,1.2846,1.2833,1.2781,1.2778,1.2807,1.2805,1.2804,1.2803,0,0,0,0,0,0,0,1.3033,1.3025,1.2951,1.2962,1.2959,1.2953,1.2946,1.2911,1.2882,1.2915,1.2914,1.2907,1.2851,1.2836,1.2831,1.2777,1.2807,1.2804,1.2802,1.2801,1.2695,1.2694,0,0,0,0,0,0,1.3041,1.3029,1.2953,1.2949,1.2996,1.295,1.2943,1.2926,1.2882,1.2876,1.2907,1.2906,1.2842,1.2835,1.2828,1.2786,1.2804,1.2801,1.2799,1.2696,1.2695,1.2694,0,0,0,0,0,0,1.3043,1.3034,1.2956,1.2988,1.2978,1.2948,1.2929,1.2924,1.291,1.2876,1.287,1.2897,1.2842,1.2833,1.2796,1.2783,1.2799,1.2796,1.2697,1.2696,1.2694,1.2701,0,0,0,0,0,0,1.3046,1.3035,1.3023,1.2988,1.2976,1.2926,1.2928,1.2923,1.2905,1.2904,1.2865,1.286,1.2842,1.2801,1.2793,1.2779,1.2793,1.2698,1.2696,1.2695,1.2702,1.27,1.2699,0,0,0,0,0,1.305,1.3026,1.3023,1.3014,1.2961,1.2925,1.2918,1.29,1.2904,1.2891,1.2869,1.2861,1.2786,1.2798,1.2788,1.2772,1.2698,1.2697,1.2695,1.2702,1.27,1.2699,0,0,0,0,0,0,1.3058,1.3021,1.3017,1.2982,1.2957,1.2923,1.2905,1.2898,1.287,1.287,1.2847,1.2838,1.2803,1.2784,1.2797,1.2738,1.2742,1.2738,1.2751,1.2749,1.2748,1.2752,1.279,0,0,0,0,0,1.3056,1.3032,1.3001,1.2973,1.2961,1.2936,1.2919,1.2907,1.288,1.2868,1.2844,1.2816,1.2786,1.2767,1.2737,1.27,1.269,1.2684,1.2683,1.2682,1.2678,1.2656,1.2652,1.2688,1.2689,1.2689,0,0,1.3051,1.3028,1.3014,1.2974,1.2953,1.2927,1.2927,1.2899,1.2878,1.2863,1.2827,1.2809,1.2776,1.2738,1.272,1.2721,1.2666,1.268,1.2679,1.2676,1.2654,1.265,1.2647,1.2687,1.2688,1.2688,0,0,1.3029,1.301,1.2984,1.2964,1.2934,1.2917,1.2911,1.2878,1.2866,1.283,1.2818,1.2793,1.2742,1.2719,1.2701,1.2671,1.2662,1.2662,1.2654,1.2632,1.2629,1.2627,1.2615,1.2611,1.2659,1.2659,1.2659,0,1.3025,1.2987,1.2971,1.2944,1.2926,1.2915,1.2888,1.2868,1.2829,1.2816,1.2819,1.2756,1.2732,1.2689,1.2682,1.2668,1.2659,1.2665,1.2632,1.2629,1.2626,1.2614,1.261,1.2659,1.2659,1.2659,1.2659,0,1.2984,1.2958,1.2941,1.2906,1.2886,1.2859,1.2837,1.2819,1.2809,1.2792,1.2755,1.2728,1.2693,1.2682,1.2671,1.2637,1.2638,1.2637,1.264,1.2623,1.2611,1.2607,1.2659,1.2659,1.2659,1.2659,0,0,1.2963,1.2921,1.2915,1.2898,1.2865,1.2843,1.2815,1.2783,1.2767,1.2741,1.2716,1.2674,1.2673,1.2652,1.2639,1.2621,1.2597,1.2621,1.262,1.2616,1.2556,1.2556,1.2551,1.2592,1.2592,1.2591,1.2558,0,1.2935,1.2887,1.2872,1.2831,1.2805,1.2795,1.277,1.2746,1.273,1.2704,1.2686,1.2656,1.2657,1.2645,1.2626,1.2604,1.2585,1.2607,1.2566,1.2565,1.2573,1.2545,1.2545,1.2516,1.2554,1.2553,1.2552,0,1.2895,1.287,1.2827,1.2797,1.2786,1.2765,1.2734,1.2711,1.2683,1.2672,1.265,1.2639,1.2608,1.2615,1.2571,1.2586,1.2569,1.2556,1.2554,1.2548,1.2556,1.2537,1.2506,1.2501,1.2545,1.2546,1.2547,0,1.2882,1.2838,1.2806,1.2793,1.2757,1.2743,1.2727,1.27,1.2681,1.2654,1.2642,1.2611,1.2593,1.2569,1.2549,1.2556,1.2506,1.2512,1.2494,1.2495,1.2482,1.2483,1.2447,1.2475,1.2475,1.2475,1.2475,0,1.2851,1.2824,1.28,1.278,1.275,1.2733,1.2703,1.2687,1.2663,1.2639,1.2627,1.2604,1.2581,1.2554,1.2538,1.2503,1.2496,1.2485,1.2481,1.2485,1.2486,1.2471,1.2472,1.2474,1.2474,1.2474,1.2474,0,1.283,1.2813,1.2777,1.2748,1.274,1.2719,1.2692,1.2672,1.2656,1.2625,1.2617,1.2591,1.256,1.2538,1.2497,1.2486,1.2448,1.2445,1.2458,1.2455,1.2438,1.244,1.239,1.2382,1.2417,1.2417,1.2417,0,1.281,1.279,1.2759,1.2743,1.2727,1.2701,1.2683,1.2666,1.2647,1.2615,1.2598,1.2566,1.254,1.2489,1.2465,1.2434,1.2429,1.2414,1.2423,1.2428,1.2426,1.2427,1.2424,1.2411,1.2411,1.2411,1.241,0,1.2776,1.2769,1.2745,1.2717,1.2696,1.2673,1.265,1.2637,1.2616,1.2595,1.2564,1.2543,1.2503,1.247,1.2437,1.2418,1.241,1.2408,1.2402,1.2405,1.2412,1.2406,1.2451,1.2408,1.2409,1.2409,1.2409,1.2409,1.2754,1.2735,1.2711,1.2683,1.2665,1.2644,1.2623,1.2606,1.258,1.2547,1.2538,1.2505,1.2477,1.2432,1.2413,1.2386,1.2387,1.2379,1.2376,1.2374,1.2373,1.2419,1.238,1.238,1.238,1.238,1.238,0,1.2718,1.2702,1.2678,1.2647,1.2625,1.2623,1.2597,1.2578,1.255,1.2526,1.2501,1.2464,1.2434,1.2409,1.2376,1.2359,1.2354,1.2351,1.2351,1.2346,1.2375,1.2382,1.2355,1.2355,1.2355,1.2355,1.2355,1.2355,1.2696,1.2665,1.2655,1.2613,1.2597,1.2566,1.2552,1.2532,1.2513,1.2473,1.2448,1.2433,1.2408,1.2374,1.2345,1.2339,1.2326,1.2323,1.2315,1.2342,1.2344,1.2347,1.2354,1.2321,1.2321,1.2289,1.2289,1.2289]}]]